Roanoke, VA

3:32 PM EDT on June 25, 2017 (GMT -0400)
Roanoke Regional-Woodrum

Weather History for KROA - December, 2013

Change the Weather History Date:

Saturday, December 28, 2013

  Actual Average Record
Temperature  
Mean Temperature 43 °F 37 °F  
Max Temperature 58 °F 46 °F 75 °F (1984)
Min Temperature 27 °F 28 °F 4 °F (1925)
Degree Days  
Heating Degree Days 22 28  
Month to date heating degree days 624 722  
Since 1 July heating degree days 1496 1526  
Cooling Degree Days 0 0  
Month to date cooling degree days 0 0  
Year to date cooling degree days 1227 1208  
Moisture  
Dew Point 21 °F    
Average Humidity 48    
Maximum Humidity 76    
Minimum Humidity 20    
Precipitation  
Precipitation 0.06 in 0.09 in 3.28 in (1958)
Month to date precipitation 3.41 2.69  
Year to date precipitation 52.13 41.00  
Snow  
Snow 0.00 in - - ()
Month to date snowfall T  
Since 1 July snowfall T  
Snow Depth 0.00 in    
Sea Level Pressure  
Sea Level Pressure 30.32 in    
Wind  
Wind Speed 3 mph (West)    
Max Wind Speed 14 mph    
Max Gust Speed 18 mph    
Visibility 10 miles    
Events Rain    
T = Trace of Precipitation, MM = Missing Value Source: NWS Daily Summary

Daily Weather History Graph

Daily Weather History Graph

Search for Another Location

Airport or City:

Trip Planner

Search our weather history database for the weather conditions in past years. The results will help you decide how hot, cold, wet, or windy it might be!

Date:

Astronomy

Dec. 28, 2013 Rise Set
Actual Time 7:33 AM EST 5:10 PM EST
Civil Twilight 7:04 AM EST 5:39 PM EST
Nautical Twilight 6:31 AM EST 6:11 PM EST
Astronomical Twilight 5:59 AM EST 6:43 PM EST
Moon 3:11 AM EST (12/28) 1:57 PM EST (12/28)
Length of Visible Light 10h 35m
Length of Day
9h 36m
Waning Crescent, 19% of the Moon is Illuminated
Dec 28
Waning Crescent
Jan 1
New
Jan 7
First Quarter
Jan 15
Full
Jan 24
Last Quarter

Hourly Weather History & Observations

Time (EST) Temp. Windchill Dew Point Humidity Pressure Visibility Wind Dir Wind Speed Gust Speed Precip Events Conditions
12:54 AM 32.0 °F - 19.0 °F 59% 30.39 in 10.0 mi Calm Calm - N/A   Clear
1:54 AM 33.1 °F - 19.0 °F 56% 30.38 in 10.0 mi Calm Calm - N/A   Clear
2:54 AM 32.0 °F - 19.0 °F 59% 30.40 in 10.0 mi Calm Calm - N/A   Clear
3:54 AM 32.0 °F 27.5 °F 19.0 °F 59% 30.38 in 10.0 mi NW 4.6 mph - N/A   Clear
4:54 AM 30.0 °F - 18.0 °F 61% 30.37 in 10.0 mi Calm Calm - N/A   Clear
5:54 AM 30.9 °F - 19.0 °F 61% 30.38 in 10.0 mi Calm Calm - N/A   Clear
6:54 AM 30.0 °F 26.5 °F 19.0 °F 64% 30.40 in 10.0 mi NNW 3.5 mph - N/A   Clear
7:54 AM 30.0 °F - 19.9 °F 66% 30.41 in 10.0 mi Calm Calm - N/A   Clear
8:54 AM 35.1 °F - 21.9 °F 59% 30.41 in 10.0 mi Calm Calm - N/A   Clear
9:54 AM 39.9 °F 37.8 °F 21.9 °F 49% 30.40 in 10.0 mi NNW 3.5 mph - N/A   Clear
10:54 AM 45.0 °F 39.3 °F 19.9 °F 37% 30.38 in 10.0 mi West 11.5 mph - N/A   Clear
11:54 AM 50.0 °F - 19.9 °F 31% 30.35 in 10.0 mi WSW 10.4 mph - N/A   Clear
12:54 PM 53.1 °F - 17.1 °F 24% 30.30 in 10.0 mi WSW 9.2 mph - N/A   Clear
1:54 PM 55.9 °F - 15.1 °F 20% 30.27 in 10.0 mi WSW 8.1 mph - N/A   Clear
2:54 PM 55.9 °F - 17.1 °F 22% 30.27 in 10.0 mi West 8.1 mph - N/A   Clear
3:54 PM 54.0 °F - 18.0 °F 24% 30.27 in 10.0 mi SW 3.5 mph - N/A   Scattered Clouds
4:54 PM 51.1 °F - 19.9 °F 29% 30.26 in 10.0 mi SSE 3.5 mph - N/A   Scattered Clouds
5:54 PM 51.1 °F - 19.9 °F 29% 30.25 in 10.0 mi Calm Calm - N/A   Scattered Clouds
6:54 PM 50.0 °F - 21.0 °F 32% 30.24 in 10.0 mi Calm Calm - N/A   Scattered Clouds
7:54 PM 46.0 °F - 25.0 °F 44% 30.24 in 10.0 mi Calm Calm - N/A   Scattered Clouds
8:54 PM 46.0 °F - 26.1 °F 46% 30.20 in 10.0 mi Calm Calm - N/A   Scattered Clouds
9:54 PM 45.0 °F 43.5 °F 27.0 °F 49% 30.21 in 10.0 mi NNW 3.5 mph - 0.00 in Rain Light Rain
10:54 PM 42.1 °F - 35.1 °F 76% 30.21 in 10.0 mi Calm Calm - 0.01 in Rain Light Rain
11:54 PM 41.0 °F - 37.0 °F 86% 30.18 in 9.0 mi Calm Calm - 0.04 in Rain Light Rain